FENGYUN 1C DEB

Satellite information

Favourite Embed

Satellite Type and Status

DEBRISIN ORBIT

Key statistics

Satellite FENGYUN 1C DEB at a glance.

Uptime

9617

Days in orbit

Revolutions

≈ 14.4

Per day

Orbit

SSO

Sun Synchronous Orbit

Inclination

98.6

Latest

Satellite identification and parameters

Extended collection of information and parameters for FENGYUN 1C DEB.

Object identification

Identified? True

Debris? True

Object name: FENGYUN 1C DEB

International designator: 1999-025BYT

Object number (NORAD): 31552

Object ID (CCSDS): 31552

Country: PEOPLES REPUBLIC OF CHINA (PRC)

Current information (Y/N): Y

RCS size: SMALL

Orbital parameters

Period: 99.853 minutes

Inclination: 98.6214 deg

SMA: 7129.654 km

Apoapsis: 816.088 km

Periapsis: 686.949 km

RAAN: 4.3207 deg

Eccentricy: 0.00905645

Argument of periapsis: 330.1109 deg

Mean anomaly: 29.4926 deg

Mean motion: 14.42115763 rev/day

Mean motion (dot): 0.00014039 rev/day2

B* drag term: 0.0040708855 1/REarth

Two-line elements (TLE)

Creation date: Sept. 1, 2025, 2:20 a.m.

Reference frame: TEME

Reference center: EARTH

Epoch: Aug. 31, 2025, 7:28 p.m. UTC

TLE line 0: 0 FENGYUN 1C DEB

TLE line 1: 1 31552U 99025BYT 25243.81170883 .00014039 00000-0 40709-2 0 9992

TLE line 2: 2 31552 98.6214 4.3207 0090565 330.1109 29.4926 14.42115763943918

Live tracking on map

Real-time ground track for satellite FENGYUN 1C DEB.

In-orbit conjunctions

A list of the most updated potential collisions computed for object FENGYUN 1C DEB.

Target Orbit TCA Probability of collision Miss distance Type
CZ-6A DEB LEO 2025-01-30 23:40:05 0.0003174524 390.0 (m) DEBRIS
THOR ABLESTAR DEB LEO 2024-11-15 17:00:21 0.0001138485 735.0 (m) DEBRIS
SL-16 DEB LEO 2024-09-25 13:35:22 0.0001272409 299.0 (m) DEBRIS

Associated space launch

Chinese polar orbiting meteorological satellite

FENGYUN 1C DEB was lifted into orbit during the mission ‘Long March 4B | Feng Yun 1C’, on board a Long March 4B space rocket.

The launch took place on May 10, 1999, 1:33 a.m. from Launch Complex 7.

For more information about the launch, click the button.

Launch to space Long March 4B | Feng Yun 1C
Long March 4B | Feng Yun 1C

Agency: N/A

Status: Launch Successful

Launch date: May 10, 1999, 1:33 a.m. UTC

Rocket: Long March 4B

Launch pad: Launch Complex 7

Location: Taiyuan Satellite Launch Center, People's Republic of China

...

Latest news about this satellite

There are no fresh news available about this satellite. Check back as we update our databases every day.


Newsletter sign-up

Weekly statistics, charts and insights to help you stay on top of the space industry.